Time,TemperatureF,DewpointF,PressureIn,WindDirection,WindDirectionDegrees,WindSpeedMPH,WindSpeedGustMPH,Humidity,HourlyPrecipIn,Conditions,Clouds,dailyrainin,SoftwareType,DateUTC
2013-02-04 00:03:00,23.0,15.6,25.51,North,0,0.0,0.0,73,0.00,,---,0.00,VWS V13.01,2013-02-04 07:03:00,
2013-02-04 00:08:00,23.0,16.0,25.51,North,0,0.0,0.0,74,0.00,,---,0.00,VWS V13.01,2013-02-04 07:08:00,
2013-02-04 00:13:00,22.8,15.8,25.51,North,0,0.0,0.0,74,0.00,,---,0.00,VWS V13.01,2013-02-04 07:13:00,
2013-02-04 00:18:00,22.8,15.8,25.51,North,0,0.0,0.0,74,0.00,,---,0.00,VWS V13.01,2013-02-04 07:18:00,
2013-02-04 00:23:00,22.8,15.8,25.51,North,0,0.0,0.0,74,0.00,,---,0.00,VWS V13.01,2013-02-04 07:23:00,
2013-02-04 00:28:00,22.6,15.9,25.51,North,0,0.0,0.0,75,0.00,,---,0.00,VWS V13.01,2013-02-04 07:28:00,
2013-02-04 00:33:00,22.5,15.8,25.51,North,0,0.0,0.0,75,0.00,,---,0.00,VWS V13.01,2013-02-04 07:33:00,
2013-02-04 00:38:00,22.3,15.3,25.51,North,0,0.0,0.0,74,0.00,,---,0.00,VWS V13.01,2013-02-04 07:38:00,
2013-02-04 00:43:00,22.5,15.8,25.51,North,0,0.0,0.0,75,0.00,,---,0.00,VWS V13.01,2013-02-04 07:43:00,
2013-02-04 00:48:00,22.5,15.8,25.51,North,0,0.0,0.0,75,0.00,,---,0.00,VWS V13.01,2013-02-04 07:48:00,
2013-02-04 00:53:00,22.5,16.0,25.51,North,0,0.0,0.0,76,0.00,,---,0.00,VWS V13.01,2013-02-04 07:53:00,
2013-02-04 00:58:00,22.6,16.2,25.51,North,0,0.0,0.0,76,0.00,,---,0.00,VWS V13.01,2013-02-04 07:58:00,
2013-02-04 01:03:00,22.8,16.4,25.51,North,0,0.0,0.0,76,0.00,,---,0.00,VWS V13.01,2013-02-04 08:03:00,
2013-02-04 01:08:00,22.8,16.4,25.51,North,0,0.0,0.0,76,0.00,,---,0.00,VWS V13.01,2013-02-04 08:08:00,
2013-02-04 01:13:00,23.0,16.9,25.51,North,0,0.0,0.0,77,0.00,,---,0.00,VWS V13.01,2013-02-04 08:13:00,
2013-02-04 01:18:00,23.5,17.1,25.51,North,0,0.0,0.0,76,0.00,,---,0.00,VWS V13.01,2013-02-04 08:18:00,
2013-02-04 01:23:00,23.7,17.0,25.51,North,0,0.0,0.0,75,0.00,,---,0.00,VWS V13.01,2013-02-04 08:23:00,
2013-02-04 01:28:00,23.9,16.5,25.51,North,0,0.0,0.0,73,0.00,,---,0.00,VWS V13.01,2013-02-04 08:28:00,
2013-02-04 01:33:00,24.1,16.4,25.51,North,0,0.0,0.0,72,0.00,,---,0.00,VWS V13.01,2013-02-04 08:33:00,
2013-02-04 01:38:00,24.3,15.9,25.51,North,0,0.0,0.0,70,0.00,,---,0.00,VWS V13.01,2013-02-04 08:38:00,
2013-02-04 01:43:00,24.1,15.4,25.51,North,0,0.0,0.0,69,0.00,,---,0.00,VWS V13.01,2013-02-04 08:43:00,
2013-02-04 01:48:00,23.9,15.2,25.51,North,0,0.0,0.0,69,0.00,,---,0.00,VWS V13.01,2013-02-04 08:48:00,
2013-02-04 01:53:00,23.9,15.6,25.51,North,0,0.0,0.0,70,0.00,,---,0.00,VWS V13.01,2013-02-04 08:53:00,
2013-02-04 01:58:00,23.9,15.6,25.51,North,0,0.0,0.0,70,0.00,,---,0.00,VWS V13.01,2013-02-04 08:58:00,
2013-02-04 02:03:00,23.7,15.4,25.51,North,0,0.0,0.0,70,0.00,,---,0.00,VWS V13.01,2013-02-04 09:03:00,
2013-02-04 02:08:00,23.9,15.6,25.51,North,0,0.0,0.0,70,0.00,,---,0.00,VWS V13.01,2013-02-04 09:08:00,
2013-02-04 02:13:00,23.9,15.6,25.51,North,0,0.0,0.0,70,0.00,,---,0.00,VWS V13.01,2013-02-04 09:13:00,
2013-02-04 02:18:00,23.9,15.6,25.51,North,0,0.0,0.0,70,0.00,,---,0.00,VWS V13.01,2013-02-04 09:18:00,
2013-02-04 02:23:00,23.7,15.4,25.51,North,0,0.0,0.0,70,0.00,,---,0.00,VWS V13.01,2013-02-04 09:23:00,
2013-02-04 02:28:00,23.9,15.6,25.51,North,0,0.0,0.0,70,0.00,,---,0.00,VWS V13.01,2013-02-04 09:28:00,
2013-02-04 02:33:00,23.9,15.6,25.51,North,0,0.0,0.0,70,0.00,,---,0.00,VWS V13.01,2013-02-04 09:33:00,
2013-02-04 02:37:00,23.7,15.4,25.51,North,0,0.0,0.0,70,0.00,,---,0.00,VWS V13.01,2013-02-04 09:37:00,
2013-02-04 02:42:00,23.7,15.4,25.51,North,0,0.0,0.0,70,0.00,,---,0.00,VWS V13.01,2013-02-04 09:42:00,
2013-02-04 02:47:00,23.5,15.2,25.51,North,0,0.0,0.0,70,0.00,,---,0.00,VWS V13.01,2013-02-04 09:47:00,
2013-02-04 02:52:00,23.4,15.0,25.51,North,0,0.0,0.0,70,0.00,,---,0.00,VWS V13.01,2013-02-04 09:52:00,
2013-02-04 02:57:00,23.2,14.9,25.51,North,0,0.0,0.0,70,0.00,,---,0.00,VWS V13.01,2013-02-04 09:57:00,
2013-02-04 03:02:00,23.2,15.2,25.51,North,0,0.0,0.0,71,0.00,,---,0.00,VWS V13.01,2013-02-04 10:02:00,
2013-02-04 03:07:00,23.2,15.2,25.51,North,0,0.0,0.0,71,0.00,,---,0.00,VWS V13.01,2013-02-04 10:07:00,
2013-02-04 03:12:00,23.0,15.0,25.51,North,0,0.0,0.0,71,0.00,,---,0.00,VWS V13.01,2013-02-04 10:12:00,
2013-02-04 03:17:00,22.8,14.8,25.51,North,0,0.0,0.0,71,0.00,,---,0.00,VWS V13.01,2013-02-04 10:17:00,
2013-02-04 03:22:00,22.6,14.7,25.51,North,0,0.0,0.0,71,0.00,,---,0.00,VWS V13.01,2013-02-04 10:22:00,
2013-02-04 03:27:00,22.3,14.6,25.51,North,0,0.0,0.0,72,0.00,,---,0.00,VWS V13.01,2013-02-04 10:27:00,
2013-02-04 03:32:00,22.3,15.0,25.51,North,0,0.0,0.0,73,0.00,,---,0.00,VWS V13.01,2013-02-04 10:32:00,
2013-02-04 03:37:00,22.3,15.0,25.51,North,0,0.0,0.0,73,0.00,,---,0.00,VWS V13.01,2013-02-04 10:37:00,
2013-02-04 03:42:00,22.3,15.3,25.51,North,0,0.0,0.0,74,0.00,,---,0.00,VWS V13.01,2013-02-04 10:42:00,
2013-02-04 03:47:00,22.3,15.3,25.51,North,0,0.0,0.0,74,0.00,,---,0.00,VWS V13.01,2013-02-04 10:47:00,
2013-02-04 03:52:00,22.5,15.4,25.51,North,0,0.0,0.0,74,0.00,,---,0.00,VWS V13.01,2013-02-04 10:52:00,
2013-02-04 03:57:00,22.5,15.4,25.51,North,0,0.0,0.0,74,0.00,,---,0.00,VWS V13.01,2013-02-04 10:57:00,
2013-02-04 04:02:00,22.5,15.4,25.51,North,0,0.0,0.0,74,0.00,,---,0.00,VWS V13.01,2013-02-04 11:02:00,
2013-02-04 04:07:00,22.3,15.3,25.48,North,0,0.0,0.0,74,0.00,,---,0.00,VWS V13.01,2013-02-04 11:07:00,
2013-02-04 04:12:00,22.3,15.3,25.48,North,0,0.0,0.0,74,0.00,,---,0.00,VWS V13.01,2013-02-04 11:12:00,
2013-02-04 04:17:00,22.5,15.4,25.48,North,0,0.0,0.0,74,0.00,,---,0.00,VWS V13.01,2013-02-04 11:17:00,
2013-02-04 04:22:00,22.5,15.4,25.48,North,0,0.0,0.0,74,0.00,,---,0.00,VWS V13.01,2013-02-04 11:22:00,
2013-02-04 04:27:00,22.5,15.4,25.48,North,0,0.0,0.0,74,0.00,,---,0.00,VWS V13.01,2013-02-04 11:27:00,
2013-02-04 04:32:00,22.5,15.4,25.48,North,0,0.0,0.0,74,0.00,,---,0.00,VWS V13.01,2013-02-04 11:32:00,
2013-02-04 04:37:00,22.5,15.1,25.48,North,0,0.0,0.0,73,0.00,,---,0.00,VWS V13.01,2013-02-04 11:37:00,
2013-02-04 04:42:00,22.5,15.1,25.48,North,0,0.0,0.0,73,0.00,,---,0.00,VWS V13.01,2013-02-04 11:42:00,
2013-02-04 04:47:00,22.5,15.1,25.48,North,0,0.0,0.0,73,0.00,,---,0.00,VWS V13.01,2013-02-04 11:47:00,
2013-02-04 04:52:00,22.5,15.1,25.48,North,0,0.0,0.0,73,0.00,,---,0.00,VWS V13.01,2013-02-04 11:52:00,
2013-02-04 04:57:00,22.5,15.1,25.48,North,0,0.0,0.0,73,0.00,,---,0.00,VWS V13.01,2013-02-04 11:57:00,
2013-02-04 05:02:00,22.3,14.6,25.48,North,0,0.0,0.0,72,0.00,,---,0.00,VWS V13.01,2013-02-04 12:02:00,
2013-02-04 05:07:00,22.3,14.6,25.48,North,0,0.0,0.0,72,0.00,,---,0.00,VWS V13.01,2013-02-04 12:07:00,
2013-02-04 05:12:00,22.3,15.0,25.48,North,0,0.0,0.0,73,0.00,,---,0.00,VWS V13.01,2013-02-04 12:12:00,
2013-02-04 05:17:00,22.3,14.6,25.48,North,0,0.0,0.0,72,0.00,,---,0.00,VWS V13.01,2013-02-04 12:17:00,
2013-02-04 05:22:00,22.1,14.8,25.48,North,0,0.0,0.0,73,0.00,,---,0.00,VWS V13.01,2013-02-04 12:22:00,
2013-02-04 05:27:00,21.9,14.3,25.45,North,0,0.0,0.0,72,0.00,,---,0.00,VWS V13.01,2013-02-04 12:27:00,
2013-02-04 05:32:00,21.9,14.3,25.45,North,0,0.0,0.0,72,0.00,,---,0.00,VWS V13.01,2013-02-04 12:32:00,
2013-02-04 05:37:00,21.6,13.9,25.48,North,0,0.0,0.0,72,0.00,,---,0.00,VWS V13.01,2013-02-04 12:37:00,
2013-02-04 05:42:00,21.6,14.3,25.48,North,0,0.0,0.0,73,0.00,,---,0.00,VWS V13.01,2013-02-04 12:42:00,
2013-02-04 05:47:00,21.7,14.4,25.48,North,0,0.0,0.0,73,0.00,,---,0.00,VWS V13.01,2013-02-04 12:47:00,
2013-02-04 05:52:00,21.7,14.7,25.45,North,0,0.0,0.0,74,0.00,,---,0.00,VWS V13.01,2013-02-04 12:52:00,
2013-02-04 05:57:00,21.9,14.9,25.45,North,0,0.0,0.0,74,0.00,,---,0.00,VWS V13.01,2013-02-04 12:57:00,
2013-02-04 06:02:00,22.1,15.1,25.45,North,0,0.0,0.0,74,0.00,,---,0.00,VWS V13.01,2013-02-04 13:02:00,
2013-02-04 06:07:00,22.6,15.3,25.45,North,0,0.0,0.0,73,0.00,,---,0.00,VWS V13.01,2013-02-04 13:07:00,
2013-02-04 06:12:00,22.8,15.2,25.45,North,0,0.0,0.0,72,0.00,,---,0.00,VWS V13.01,2013-02-04 13:12:00,
2013-02-04 06:17:00,22.8,14.8,25.45,North,0,0.0,0.0,71,0.00,,---,0.00,VWS V13.01,2013-02-04 13:17:00,
2013-02-04 06:22:00,23.2,14.9,25.48,North,0,0.0,0.0,70,0.00,,---,0.00,VWS V13.01,2013-02-04 13:22:00,
2013-02-04 06:27:00,23.5,14.9,25.48,North,0,0.0,0.0,69,0.00,,---,0.00,VWS V13.01,2013-02-04 13:27:00,
2013-02-04 06:32:00,23.9,14.6,25.48,North,0,0.0,0.0,67,0.00,,---,0.00,VWS V13.01,2013-02-04 13:32:00,
2013-02-04 06:37:00,23.9,13.9,25.45,North,0,0.0,0.0,65,0.00,,---,0.00,VWS V13.01,2013-02-04 13:37:00,
2013-02-04 06:42:00,23.9,13.9,25.45,North,0,0.0,0.0,65,0.00,,---,0.00,VWS V13.01,2013-02-04 13:42:00,
2013-02-04 06:47:00,24.1,14.0,25.45,North,0,0.0,0.0,65,0.00,,---,0.00,VWS V13.01,2013-02-04 13:47:00,
2013-02-04 06:52:00,24.3,14.2,25.45,North,0,0.0,0.0,65,0.00,,---,0.00,VWS V13.01,2013-02-04 13:52:00,
2013-02-04 06:57:00,24.8,14.4,25.45,North,0,0.0,0.0,64,0.00,,---,0.00,VWS V13.01,2013-02-04 13:57:00,
2013-02-04 07:02:00,25.3,14.2,25.45,North,0,0.0,0.0,62,0.00,,---,0.00,VWS V13.01,2013-02-04 14:02:00,
2013-02-04 07:07:00,25.5,14.0,25.45,North,0,0.0,0.0,61,0.00,,---,0.00,VWS V13.01,2013-02-04 14:07:00,
2013-02-04 07:12:00,25.5,13.6,25.45,North,0,0.0,0.0,60,0.00,,---,0.00,VWS V13.01,2013-02-04 14:12:00,
2013-02-04 07:17:00,25.3,13.4,25.45,North,0,0.0,0.0,60,0.00,,---,0.00,VWS V13.01,2013-02-04 14:17:00,
2013-02-04 07:22:00,25.3,13.4,25.45,North,0,0.0,0.0,60,0.00,,---,0.00,VWS V13.01,2013-02-04 14:22:00,
2013-02-04 07:27:00,25.5,13.6,25.45,North,0,0.0,0.0,60,0.00,,---,0.00,VWS V13.01,2013-02-04 14:27:00,
2013-02-04 07:32:00,25.7,13.8,25.45,North,0,0.0,0.0,60,0.00,,---,0.00,VWS V13.01,2013-02-04 14:32:00,
2013-02-04 07:37:00,26.2,14.3,25.45,North,0,0.0,0.0,60,0.00,,---,0.00,VWS V13.01,2013-02-04 14:37:00,
2013-02-04 07:42:00,26.8,14.0,25.45,North,0,0.0,0.0,58,0.00,,---,0.00,VWS V13.01,2013-02-04 14:42:00,
2013-02-04 07:47:00,27.1,14.3,25.45,North,0,0.0,0.0,58,0.00,,---,0.00,VWS V13.01,2013-02-04 14:47:00,
2013-02-04 07:52:00,27.7,14.4,25.45,North,0,0.0,0.0,57,0.00,,---,0.00,VWS V13.01,2013-02-04 14:52:00,
2013-02-04 07:57:00,27.9,14.2,25.45,North,0,0.0,0.0,56,0.00,,---,0.00,VWS V13.01,2013-02-04 14:57:00,
2013-02-04 08:02:00,28.2,14.1,25.45,North,0,0.0,0.0,55,0.00,,---,0.00,VWS V13.01,2013-02-04 15:02:00,
2013-02-04 08:07:00,28.6,14.1,25.45,North,0,0.0,0.0,54,0.00,,---,0.00,VWS V13.01,2013-02-04 15:07:00,
2013-02-04 08:12:00,29.1,14.1,25.45,North,0,0.0,0.0,53,0.00,,---,0.00,VWS V13.01,2013-02-04 15:12:00,
2013-02-04 08:17:00,29.5,14.5,25.45,North,0,0.0,0.0,53,0.00,,---,0.00,VWS V13.01,2013-02-04 15:17:00,
2013-02-04 08:22:00,30.4,14.4,25.45,North,0,0.0,0.0,51,0.00,,---,0.00,VWS V13.01,2013-02-04 15:22:00,
2013-02-04 08:27:00,31.1,14.6,25.45,North,0,0.0,0.0,50,0.00,,---,0.00,VWS V13.01,2013-02-04 15:27:00,
2013-02-04 08:32:00,32.7,14.7,25.45,North,0,0.0,0.0,47,0.00,,---,0.00,VWS V13.01,2013-02-04 15:32:00,
2013-02-04 08:37:00,34.2,16.0,25.45,North,0,0.0,0.0,47,0.00,,---,0.00,VWS V13.01,2013-02-04 15:37:00,
2013-02-04 08:42:00,34.7,14.5,25.45,North,0,0.0,0.0,43,0.00,,---,0.00,VWS V13.01,2013-02-04 15:42:00,
2013-02-04 08:47:00,34.0,13.9,25.45,North,0,0.0,0.0,43,0.00,,---,0.00,VWS V13.01,2013-02-04 15:47:00,
2013-02-04 08:52:00,35.2,15.5,25.45,North,0,0.0,0.0,44,0.00,,---,0.00,VWS V13.01,2013-02-04 15:52:00,
2013-02-04 08:57:00,37.6,16.0,25.45,North,0,0.0,0.0,41,0.00,,---,0.00,VWS V13.01,2013-02-04 15:57:00,
2013-02-04 09:02:00,40.1,17.1,25.45,North,0,0.0,0.0,39,0.00,,---,0.00,VWS V13.01,2013-02-04 16:02:00,
2013-02-04 09:07:00,41.5,17.8,25.45,North,0,0.0,0.0,38,0.00,,---,0.00,VWS V13.01,2013-02-04 16:07:00,
2013-02-04 09:12:00,43.0,18.5,25.45,North,0,0.0,0.0,37,0.00,,---,0.00,VWS V13.01,2013-02-04 16:12:00,
2013-02-04 09:17:00,43.7,17.9,25.45,North,0,0.0,0.0,35,0.00,,---,0.00,VWS V13.01,2013-02-04 16:17:00,
2013-02-04 09:22:00,43.5,16.3,25.45,North,0,0.0,0.0,33,0.00,,---,0.00,VWS V13.01,2013-02-04 16:22:00,
2013-02-04 09:27:00,44.6,16.6,25.43,North,0,0.0,0.0,32,0.00,,---,0.00,VWS V13.01,2013-02-04 16:27:00,
2013-02-04 09:32:00,45.1,17.1,25.43,North,0,0.0,0.0,32,0.00,,---,0.00,VWS V13.01,2013-02-04 16:32:00,
2013-02-04 09:37:00,45.9,17.7,25.43,North,0,0.0,0.0,32,0.00,,---,0.00,VWS V13.01,2013-02-04 16:37:00,
2013-02-04 09:42:00,46.4,17.4,25.43,North,0,0.0,0.0,31,0.00,,---,0.00,VWS V13.01,2013-02-04 16:42:00,
2013-02-04 09:47:00,45.3,15.7,25.43,North,0,0.0,0.0,30,0.00,,---,0.00,VWS V13.01,2013-02-04 16:47:00,
2013-02-04 09:52:00,45.1,16.3,25.43,North,0,0.0,0.0,31,0.00,,---,0.00,VWS V13.01,2013-02-04 16:52:00,
2013-02-04 09:57:00,44.8,16.0,25.43,North,0,0.0,0.0,31,0.00,,---,0.00,VWS V13.01,2013-02-04 16:57:00,
2013-02-04 10:02:00,45.1,16.3,25.43,North,0,0.0,0.0,31,0.00,,---,0.00,VWS V13.01,2013-02-04 17:02:00,
2013-02-04 10:07:00,45.3,16.5,25.43,North,0,0.0,0.0,31,0.00,,---,0.00,VWS V13.01,2013-02-04 17:07:00,
2013-02-04 10:12:00,46.2,17.3,25.43,North,0,0.0,0.0,31,0.00,,---,0.00,VWS V13.01,2013-02-04 17:12:00,
2013-02-04 10:17:00,45.7,16.0,25.43,North,0,0.0,0.0,30,0.00,,---,0.00,VWS V13.01,2013-02-04 17:17:00,
2013-02-04 10:22:00,45.5,16.6,25.43,North,0,0.0,0.0,31,0.00,,---,0.00,VWS V13.01,2013-02-04 17:22:00,
2013-02-04 10:27:00,46.2,16.5,25.43,North,0,0.0,0.0,30,0.00,,---,0.00,VWS V13.01,2013-02-04 17:27:00,
2013-02-04 10:32:00,46.8,17.0,25.43,North,0,0.0,0.0,30,0.00,,---,0.00,VWS V13.01,2013-02-04 17:32:00,
2013-02-04 10:37:00,46.9,17.1,25.43,North,0,0.0,0.0,30,0.00,,---,0.00,VWS V13.01,2013-02-04 17:37:00,
2013-02-04 10:42:00,47.8,17.9,25.43,North,0,0.0,0.0,30,0.00,,---,0.00,VWS V13.01,2013-02-04 17:42:00,
2013-02-04 10:47:00,46.8,17.0,25.43,North,0,0.0,0.0,30,0.00,,---,0.00,VWS V13.01,2013-02-04 17:47:00,
2013-02-04 10:52:00,47.3,17.5,25.43,North,0,0.0,0.0,30,0.00,,---,0.00,VWS V13.01,2013-02-04 17:52:00,
2013-02-04 10:57:00,48.2,18.2,25.43,North,0,0.0,0.0,30,0.00,,---,0.00,VWS V13.01,2013-02-04 17:57:00,
2013-02-04 11:02:00,48.0,18.1,25.43,North,0,0.0,0.0,30,0.00,,---,0.00,VWS V13.01,2013-02-04 18:02:00,
2013-02-04 11:07:00,47.5,17.6,25.43,North,0,0.0,0.0,30,0.00,,---,0.00,VWS V13.01,2013-02-04 18:07:00,
2013-02-04 11:12:00,47.7,17.8,25.43,North,0,0.0,0.0,30,0.00,,---,0.00,VWS V13.01,2013-02-04 18:12:00,
2013-02-04 11:17:00,48.2,17.5,25.43,North,0,0.0,0.0,29,0.00,,---,0.00,VWS V13.01,2013-02-04 18:17:00,
2013-02-04 11:22:00,48.6,17.8,25.43,North,0,0.0,0.0,29,0.00,,---,0.00,VWS V13.01,2013-02-04 18:22:00,
2013-02-04 11:27:00,48.4,17.6,25.43,North,0,0.0,0.0,29,0.00,,---,0.00,VWS V13.01,2013-02-04 18:27:00,
2013-02-04 11:32:00,47.5,16.8,25.43,North,0,0.0,0.0,29,0.00,,---,0.00,VWS V13.01,2013-02-04 18:32:00,
2013-02-04 11:37:00,47.3,16.7,25.43,North,0,0.0,0.0,29,0.00,,---,0.00,VWS V13.01,2013-02-04 18:37:00,
2013-02-04 11:42:00,47.7,17.0,25.43,North,0,0.0,0.0,29,0.00,,---,0.00,VWS V13.01,2013-02-04 18:42:00,
2013-02-04 11:47:00,48.4,17.6,25.43,North,0,0.0,0.0,29,0.00,,---,0.00,VWS V13.01,2013-02-04 18:47:00,
2013-02-04 11:52:00,48.6,17.8,25.43,North,0,0.0,0.0,29,0.00,,---,0.00,VWS V13.01,2013-02-04 18:52:00,
2013-02-04 11:57:00,48.0,17.3,25.43,North,0,0.0,0.0,29,0.00,,---,0.00,VWS V13.01,2013-02-04 18:57:00,
2013-02-04 12:02:00,47.5,16.8,25.43,North,0,0.0,0.0,29,0.00,,---,0.00,VWS V13.01,2013-02-04 19:02:00,
2013-02-04 12:07:00,46.4,15.9,25.43,North,0,0.0,0.0,29,0.00,,---,0.00,VWS V13.01,2013-02-04 19:07:00,
2013-02-04 12:12:00,46.0,16.4,25.43,North,0,0.0,0.0,30,0.00,,---,0.00,VWS V13.01,2013-02-04 19:12:00,
2013-02-04 12:17:00,45.5,15.9,25.43,North,0,0.0,0.0,30,0.00,,---,0.00,VWS V13.01,2013-02-04 19:17:00,
2013-02-04 12:22:00,45.5,15.9,25.43,North,0,0.0,0.0,30,0.00,,---,0.00,VWS V13.01,2013-02-04 19:22:00,
2013-02-04 12:27:00,44.8,15.3,25.43,North,0,0.0,0.0,30,0.00,,---,0.00,VWS V13.01,2013-02-04 19:27:00,
2013-02-04 12:32:00,45.5,15.9,25.43,North,0,0.0,0.0,30,0.00,,---,0.00,VWS V13.01,2013-02-04 19:32:00,
2013-02-04 12:37:00,45.7,16.0,25.43,North,0,0.0,0.0,30,0.00,,---,0.00,VWS V13.01,2013-02-04 19:37:00,
2013-02-04 12:42:00,45.5,15.9,25.43,North,0,0.0,0.0,30,0.00,,---,0.00,VWS V13.01,2013-02-04 19:42:00,
2013-02-04 12:47:00,46.4,16.7,25.43,North,0,0.0,0.0,30,0.00,,---,0.00,VWS V13.01,2013-02-04 19:47:00,
2013-02-04 12:52:00,47.1,17.3,25.43,North,0,0.0,0.0,30,0.00,,---,0.00,VWS V13.01,2013-02-04 19:52:00,
2013-02-04 12:57:00,47.8,17.9,25.40,North,0,0.0,0.0,30,0.00,,---,0.00,VWS V13.01,2013-02-04 19:57:00,
2013-02-04 13:02:00,47.7,17.8,25.40,North,0,0.0,0.0,30,0.00,,---,0.00,VWS V13.01,2013-02-04 20:02:00,
2013-02-04 13:07:00,47.3,17.5,25.40,North,0,0.0,0.0,30,0.00,,---,0.00,VWS V13.01,2013-02-04 20:07:00,
2013-02-04 13:12:00,46.9,17.1,25.40,North,0,0.0,0.0,30,0.00,,---,0.00,VWS V13.01,2013-02-04 20:12:00,
2013-02-04 13:17:00,47.8,17.9,25.40,North,0,0.0,0.0,30,0.00,,---,0.00,VWS V13.01,2013-02-04 20:17:00,
2013-02-04 13:22:00,47.7,17.8,25.40,North,0,0.0,0.0,30,0.00,,---,0.00,VWS V13.01,2013-02-04 20:22:00,
2013-02-04 13:27:00,47.3,17.5,25.40,North,0,0.0,0.0,30,0.00,,---,0.00,VWS V13.01,2013-02-04 20:27:00,
2013-02-04 13:32:00,47.1,17.3,25.40,North,0,0.0,0.0,30,0.00,,---,0.00,VWS V13.01,2013-02-04 20:32:00,
2013-02-04 13:37:00,46.9,17.1,25.40,North,0,0.0,0.0,30,0.00,,---,0.00,VWS V13.01,2013-02-04 20:37:00,
2013-02-04 13:42:00,46.4,16.7,25.40,North,0,0.0,0.0,30,0.00,,---,0.00,VWS V13.01,2013-02-04 20:42:00,
2013-02-04 13:47:00,46.9,17.1,25.40,North,0,0.0,0.0,30,0.00,,---,0.00,VWS V13.01,2013-02-04 20:47:00,
2013-02-04 13:52:00,46.8,17.0,25.40,North,0,0.0,0.0,30,0.00,,---,0.00,VWS V13.01,2013-02-04 20:52:00,
2013-02-04 13:57:00,46.0,16.4,25.40,North,0,0.0,0.0,30,0.00,,---,0.00,VWS V13.01,2013-02-04 20:57:00,
2013-02-04 14:02:00,46.2,17.3,25.40,North,0,0.0,0.0,31,0.00,,---,0.00,VWS V13.01,2013-02-04 21:02:00,
2013-02-04 14:07:00,46.0,17.1,25.40,North,0,0.0,0.0,31,0.00,,---,0.00,VWS V13.01,2013-02-04 21:07:00,
2013-02-04 14:12:00,45.3,16.5,25.40,North,0,0.0,0.0,31,0.00,,---,0.00,VWS V13.01,2013-02-04 21:12:00,
2013-02-04 14:17:00,44.6,15.9,25.40,North,0,0.0,0.0,31,0.00,,---,0.00,VWS V13.01,2013-02-04 21:17:00,
2013-02-04 14:22:00,45.3,17.2,25.40,North,0,0.0,0.0,32,0.00,,---,0.00,VWS V13.01,2013-02-04 21:22:00,
2013-02-04 14:27:00,44.8,16.7,25.40,North,0,0.0,0.0,32,0.00,,---,0.00,VWS V13.01,2013-02-04 21:27:00,
2013-02-04 14:32:00,44.6,16.6,25.40,North,0,0.0,0.0,32,0.00,,---,0.00,VWS V13.01,2013-02-04 21:32:00,
2013-02-04 14:37:00,45.0,16.9,25.40,North,0,0.0,0.0,32,0.00,,---,0.00,VWS V13.01,2013-02-04 21:37:00,
2013-02-04 14:42:00,45.0,16.9,25.40,North,0,0.0,0.0,32,0.00,,---,0.00,VWS V13.01,2013-02-04 21:42:00,
2013-02-04 14:47:00,44.2,17.0,25.40,North,0,0.0,0.0,33,0.00,,---,0.00,VWS V13.01,2013-02-04 21:47:00,
2013-02-04 14:52:00,44.2,17.0,25.40,North,0,0.0,0.0,33,0.00,,---,0.00,VWS V13.01,2013-02-04 21:52:00,
2013-02-04 14:57:00,45.0,16.9,25.40,North,0,0.0,0.0,32,0.00,,---,0.00,VWS V13.01,2013-02-04 21:57:00,
2013-02-04 15:02:00,45.3,17.2,25.40,North,0,0.0,0.0,32,0.00,,---,0.00,VWS V13.01,2013-02-04 22:02:00,
2013-02-04 15:07:00,45.3,17.9,25.40,North,0,0.0,0.0,33,0.00,,---,0.00,VWS V13.01,2013-02-04 22:07:00,
2013-02-04 15:12:00,45.0,17.6,25.40,North,0,0.0,0.0,33,0.00,,---,0.00,VWS V13.01,2013-02-04 22:12:00,
2013-02-04 15:17:00,44.2,17.0,25.40,North,0,0.0,0.0,33,0.00,,---,0.00,VWS V13.01,2013-02-04 22:17:00,
2013-02-04 15:22:00,43.9,17.4,25.40,North,0,0.0,0.0,34,0.00,,---,0.00,VWS V13.01,2013-02-04 22:22:00,
2013-02-04 15:27:00,43.3,16.9,25.43,North,0,0.0,0.0,34,0.00,,---,0.00,VWS V13.01,2013-02-04 22:27:00,
2013-02-04 15:32:00,43.0,17.2,25.43,North,0,0.0,0.0,35,0.00,,---,0.00,VWS V13.01,2013-02-04 22:32:00,
2013-02-04 15:37:00,43.2,17.4,25.43,North,0,0.0,0.0,35,0.00,,---,0.00,VWS V13.01,2013-02-04 22:37:00,
2013-02-04 15:42:00,42.8,17.1,25.40,North,0,0.0,0.0,35,0.00,,---,0.00,VWS V13.01,2013-02-04 22:42:00,
2013-02-04 15:47:00,42.3,17.9,25.40,North,0,0.0,0.0,37,0.00,,---,0.00,VWS V13.01,2013-02-04 22:47:00,
2013-02-04 15:52:00,41.5,17.8,25.40,North,0,0.0,0.0,38,0.00,,---,0.00,VWS V13.01,2013-02-04 22:52:00,
2013-02-04 15:57:00,41.4,17.7,25.40,North,0,0.0,0.0,38,0.00,,---,0.00,VWS V13.01,2013-02-04 22:57:00,
2013-02-04 16:02:00,41.4,17.7,25.40,North,0,0.0,0.0,38,0.00,,---,0.00,VWS V13.01,2013-02-04 23:02:00,
2013-02-04 16:07:00,41.4,17.7,25.40,North,0,0.0,0.0,38,0.00,,---,0.00,VWS V13.01,2013-02-04 23:07:00,
2013-02-04 16:12:00,41.2,18.1,25.40,North,0,0.0,0.0,39,0.00,,---,0.00,VWS V13.01,2013-02-04 23:12:00,
2013-02-04 16:17:00,41.0,18.0,25.40,North,0,0.0,0.0,39,0.00,,---,0.00,VWS V13.01,2013-02-04 23:17:00,
2013-02-04 16:22:00,41.0,18.0,25.40,North,0,0.0,0.0,39,0.00,,---,0.00,VWS V13.01,2013-02-04 23:22:00,
2013-02-04 16:27:00,40.5,18.1,25.40,North,0,0.0,0.0,40,0.00,,---,0.00,VWS V13.01,2013-02-04 23:27:00,
2013-02-04 16:32:00,40.1,17.7,25.40,North,0,0.0,0.0,40,0.00,,---,0.00,VWS V13.01,2013-02-04 23:32:00,
2013-02-04 16:37:00,39.6,17.2,25.40,North,0,0.0,0.0,40,0.00,,---,0.00,VWS V13.01,2013-02-04 23:37:00,
2013-02-04 16:42:00,39.6,17.2,25.40,North,0,0.0,0.0,40,0.00,,---,0.00,VWS V13.01,2013-02-04 23:42:00,
2013-02-04 16:47:00,38.8,17.2,25.40,North,0,0.0,0.0,41,0.00,,---,0.00,VWS V13.01,2013-02-04 23:47:00,
2013-02-04 16:52:00,38.1,17.1,25.40,North,0,0.0,0.0,42,0.00,,---,0.00,VWS V13.01,2013-02-04 23:52:00,
2013-02-04 16:57:00,38.7,17.6,25.43,North,0,0.0,0.0,42,0.00,,---,0.00,VWS V13.01,2013-02-04 23:57:00,
2013-02-04 17:02:00,38.7,17.0,25.43,North,0,0.0,0.0,41,0.00,,---,0.00,VWS V13.01,2013-02-05 00:02:00,
2013-02-04 17:07:00,38.7,17.0,25.43,North,0,0.0,0.0,41,0.00,,---,0.00,VWS V13.01,2013-02-05 00:07:00,
2013-02-04 17:12:00,38.5,16.8,25.43,North,0,0.0,0.0,41,0.00,,---,0.00,VWS V13.01,2013-02-05 00:12:00,
2013-02-04 17:17:00,37.9,16.9,25.43,North,0,0.0,0.0,42,0.00,,---,0.00,VWS V13.01,2013-02-05 00:17:00,
2013-02-04 17:22:00,37.9,16.9,25.43,North,0,0.0,0.0,42,0.00,,---,0.00,VWS V13.01,2013-02-05 00:22:00,
2013-02-04 17:27:00,37.4,16.4,25.43,North,0,0.0,0.0,42,0.00,,---,0.00,VWS V13.01,2013-02-05 00:27:00,
2013-02-04 17:32:00,37.4,16.4,25.43,North,0,0.0,0.0,42,0.00,,---,0.00,VWS V13.01,2013-02-05 00:32:00,
2013-02-04 17:37:00,37.4,17.0,25.43,North,0,0.0,0.0,43,0.00,,---,0.00,VWS V13.01,2013-02-05 00:37:00,
2013-02-04 17:42:00,38.1,17.6,25.43,North,0,0.0,0.0,43,0.00,,---,0.00,VWS V13.01,2013-02-05 00:42:00,
2013-02-04 17:47:00,37.6,17.1,25.43,North,0,0.0,0.0,43,0.00,,---,0.00,VWS V13.01,2013-02-05 00:47:00,
2013-02-04 17:52:00,36.3,16.5,25.43,North,0,0.0,0.0,44,0.00,,---,0.00,VWS V13.01,2013-02-05 00:52:00,
2013-02-04 17:57:00,35.4,16.7,25.43,North,0,0.0,0.0,46,0.00,,---,0.00,VWS V13.01,2013-02-05 00:57:00,
2013-02-04 18:02:00,34.3,15.7,25.43,North,0,0.0,0.0,46,0.00,,---,0.00,VWS V13.01,2013-02-05 01:02:00,
2013-02-04 18:07:00,34.3,17.2,25.43,North,0,0.0,0.0,49,0.00,,---,0.00,VWS V13.01,2013-02-05 01:07:00,
2013-02-04 18:12:00,34.7,18.0,25.43,North,0,0.0,0.0,50,0.00,,---,0.00,VWS V13.01,2013-02-05 01:12:00,
2013-02-04 18:17:00,34.3,17.6,25.43,North,0,0.0,0.0,50,0.00,,---,0.00,VWS V13.01,2013-02-05 01:17:00,
2013-02-04 18:22:00,33.3,16.6,25.43,North,0,0.0,0.0,50,0.00,,---,0.00,VWS V13.01,2013-02-05 01:22:00,
2013-02-04 18:27:00,32.4,16.7,25.43,North,0,0.0,0.0,52,0.00,,---,0.00,VWS V13.01,2013-02-05 01:27:00,
2013-02-04 18:32:00,31.6,16.5,25.43,North,0,0.0,0.0,53,0.00,,---,0.00,VWS V13.01,2013-02-05 01:32:00,
2013-02-04 18:37:00,31.1,16.8,25.43,North,0,0.0,0.0,55,0.00,,---,0.00,VWS V13.01,2013-02-05 01:37:00,
2013-02-04 18:42:00,30.7,16.9,25.43,North,0,0.0,0.0,56,0.00,,---,0.00,VWS V13.01,2013-02-05 01:42:00,
2013-02-04 18:47:00,30.9,17.9,25.43,North,0,0.0,0.0,58,0.00,,---,0.00,VWS V13.01,2013-02-05 01:47:00,
2013-02-04 18:52:00,31.3,18.2,25.43,North,0,0.0,0.0,58,0.00,,---,0.00,VWS V13.01,2013-02-05 01:52:00,
2013-02-04 18:57:00,31.3,18.2,25.43,North,0,0.0,0.0,58,0.00,,---,0.00,VWS V13.01,2013-02-05 01:57:00,
2013-02-04 19:02:00,31.1,18.1,25.43,North,0,0.0,0.0,58,0.00,,---,0.00,VWS V13.01,2013-02-05 02:02:00,
2013-02-04 19:07:00,30.7,17.7,25.43,North,0,0.0,0.0,58,0.00,,---,0.00,VWS V13.01,2013-02-05 02:07:00,
2013-02-04 19:12:00,30.2,17.2,25.43,North,0,0.0,0.0,58,0.00,,---,0.00,VWS V13.01,2013-02-05 02:12:00,
2013-02-04 19:17:00,29.3,16.8,25.43,North,0,0.0,0.0,59,0.00,,---,0.00,VWS V13.01,2013-02-05 02:17:00,
2013-02-04 19:22:00,28.6,16.9,25.43,North,0,0.0,0.0,61,0.00,,---,0.00,VWS V13.01,2013-02-05 02:22:00,
2013-02-04 19:27:00,27.9,17.6,25.43,North,0,0.0,0.0,65,0.00,,---,0.00,VWS V13.01,2013-02-05 02:27:00,
2013-02-04 19:32:00,27.5,18.0,25.43,North,0,0.0,0.0,67,0.00,,---,0.00,VWS V13.01,2013-02-05 02:32:00,
2013-02-04 19:37:00,27.0,17.8,25.43,North,0,0.0,0.0,68,0.00,,---,0.00,VWS V13.01,2013-02-05 02:37:00,
2013-02-04 19:42:00,26.6,17.8,25.43,North,0,0.0,0.0,69,0.00,,---,0.00,VWS V13.01,2013-02-05 02:42:00,
2013-02-04 19:47:00,26.4,18.3,25.43,North,0,0.0,0.0,71,0.00,,---,0.00,VWS V13.01,2013-02-05 02:47:00,
2013-02-04 19:52:00,25.9,17.8,25.43,North,0,0.0,0.0,71,0.00,,---,0.00,VWS V13.01,2013-02-05 02:52:00,
2013-02-04 19:57:00,25.5,18.1,25.43,North,0,0.0,0.0,73,0.00,,---,0.00,VWS V13.01,2013-02-05 02:57:00,
2013-02-04 20:02:00,25.3,17.9,25.43,North,0,0.0,0.0,73,0.00,,---,0.00,VWS V13.01,2013-02-05 03:02:00,
2013-02-04 20:07:00,25.0,17.9,25.43,North,0,0.0,0.0,74,0.00,,---,0.00,VWS V13.01,2013-02-05 03:07:00,
2013-02-04 20:12:00,24.6,17.8,25.43,North,0,0.0,0.0,75,0.00,,---,0.00,VWS V13.01,2013-02-05 03:12:00,
2013-02-04 20:17:00,24.4,18.0,25.43,North,0,0.0,0.0,76,0.00,,---,0.00,VWS V13.01,2013-02-05 03:17:00,
2013-02-04 20:22:00,24.4,18.3,25.43,North,0,0.0,0.0,77,0.00,,---,0.00,VWS V13.01,2013-02-05 03:22:00,
2013-02-04 20:27:00,24.4,18.3,25.43,North,0,0.0,0.0,77,0.00,,---,0.00,VWS V13.01,2013-02-05 03:27:00,
2013-02-04 20:32:00,24.4,18.3,25.43,North,0,0.0,0.0,77,0.00,,---,0.00,VWS V13.01,2013-02-05 03:32:00,
2013-02-04 20:37:00,24.4,18.3,25.43,North,0,0.0,0.0,77,0.00,,---,0.00,VWS V13.01,2013-02-05 03:37:00,
2013-02-04 20:42:00,24.4,18.3,25.43,North,0,0.0,0.0,77,0.00,,---,0.00,VWS V13.01,2013-02-05 03:42:00,
2013-02-04 20:47:00,24.1,18.2,25.43,North,0,0.0,0.0,78,0.00,,---,0.00,VWS V13.01,2013-02-05 03:47:00,
2013-02-04 20:52:00,24.1,18.2,25.43,North,0,0.0,0.0,78,0.00,,---,0.00,VWS V13.01,2013-02-05 03:52:00,
2013-02-04 20:57:00,25.5,20.2,25.43,North,0,0.0,0.0,80,0.00,,---,0.00,VWS V13.01,2013-02-05 03:57:00,
2013-02-04 21:02:00,26.1,20.8,25.43,North,0,0.0,0.0,80,0.00,,---,0.00,VWS V13.01,2013-02-05 04:02:00,
2013-02-04 21:07:00,26.2,20.6,25.43,North,0,0.0,0.0,79,0.00,,---,0.00,VWS V13.01,2013-02-05 04:07:00,
2013-02-04 21:12:00,26.6,20.7,25.43,North,0,0.0,0.0,78,0.00,,---,0.00,VWS V13.01,2013-02-05 04:12:00,
2013-02-04 21:17:00,27.0,20.7,25.43,North,0,0.0,0.0,77,0.00,,---,0.00,VWS V13.01,2013-02-05 04:17:00,
2013-02-04 21:22:00,27.1,20.6,25.43,North,0,0.0,0.0,76,0.00,,---,0.00,VWS V13.01,2013-02-05 04:22:00,
2013-02-04 21:27:00,27.3,20.1,25.43,North,0,0.0,0.0,74,0.00,,---,0.00,VWS V13.01,2013-02-05 04:27:00,
2013-02-04 21:32:00,27.3,19.8,25.43,North,0,0.0,0.0,73,0.00,,---,0.00,VWS V13.01,2013-02-05 04:32:00,
2013-02-04 21:37:00,27.7,19.9,25.43,North,0,0.0,0.0,72,0.00,,---,0.00,VWS V13.01,2013-02-05 04:37:00,
2013-02-04 21:42:00,27.9,19.4,25.43,North,0,0.0,0.0,70,0.00,,---,0.00,VWS V13.01,2013-02-05 04:42:00,
2013-02-04 21:47:00,27.9,19.0,25.43,North,0,0.0,0.0,69,0.00,,---,0.00,VWS V13.01,2013-02-05 04:47:00,
2013-02-04 21:52:00,28.0,18.9,25.43,North,0,0.0,0.0,68,0.00,,---,0.00,VWS V13.01,2013-02-05 04:52:00,
2013-02-04 21:57:00,28.0,18.9,25.43,North,0,0.0,0.0,68,0.00,,---,0.00,VWS V13.01,2013-02-05 04:57:00,
2013-02-04 22:00:00,28.0,18.9,25.43,North,0,0.0,0.0,68,0.00,,---,0.00,VWS V13.01,2013-02-05 05:00:00,
2013-02-04 22:05:00,28.2,18.7,25.43,North,0,0.0,0.0,67,0.00,,---,0.00,VWS V13.01,2013-02-05 05:05:00,
2013-02-04 22:10:00,28.4,18.5,25.43,North,0,0.0,0.0,66,0.00,,---,0.00,VWS V13.01,2013-02-05 05:10:00,
2013-02-04 22:15:00,28.4,18.5,25.43,North,0,0.0,0.0,66,0.00,,---,0.00,VWS V13.01,2013-02-05 05:15:00,
2013-02-04 22:20:00,28.6,18.3,25.43,North,0,0.0,0.0,65,0.00,,---,0.00,VWS V13.01,2013-02-05 05:20:00,
2013-02-04 22:25:00,28.8,18.5,25.43,North,0,0.0,0.0,65,0.00,,---,0.00,VWS V13.01,2013-02-05 05:25:00,
2013-02-04 22:30:00,28.9,18.7,25.43,North,0,0.0,0.0,65,0.00,,---,0.00,VWS V13.01,2013-02-05 05:30:00,
2013-02-04 22:35:00,29.1,18.5,25.43,North,0,0.0,0.0,64,0.00,,---,0.00,VWS V13.01,2013-02-05 05:35:00,
2013-02-04 22:40:00,29.3,18.3,25.43,North,0,0.0,0.0,63,0.00,,---,0.00,VWS V13.01,2013-02-05 05:40:00,
2013-02-04 22:45:00,29.5,18.5,25.43,North,0,0.0,0.0,63,0.00,,---,0.00,VWS V13.01,2013-02-05 05:45:00,
2013-02-04 22:50:00,29.7,18.6,25.43,North,0,0.0,0.0,63,0.00,,---,0.00,VWS V13.01,2013-02-05 05:50:00,
2013-02-04 22:55:00,29.7,18.2,25.43,North,0,0.0,0.0,62,0.00,,---,0.00,VWS V13.01,2013-02-05 05:55:00,
2013-02-04 23:00:00,31.1,19.2,25.43,North,0,0.0,0.0,61,0.00,,---,0.00,VWS V13.01,2013-02-05 06:00:00,
2013-02-04 23:05:00,31.5,18.4,25.43,North,0,0.0,0.0,58,0.00,,---,0.00,VWS V13.01,2013-02-05 06:05:00,
2013-02-04 23:10:00,31.1,17.7,25.45,North,0,0.0,0.0,57,0.00,,---,0.00,VWS V13.01,2013-02-05 06:10:00,
2013-02-04 23:15:00,31.8,18.7,25.45,North,0,0.0,0.0,58,0.00,,---,0.00,VWS V13.01,2013-02-05 06:15:00,
2013-02-04 23:20:00,32.5,18.6,25.45,North,0,0.0,0.0,56,0.00,,---,0.00,VWS V13.01,2013-02-05 06:20:00,
2013-02-04 23:25:00,32.2,18.3,25.45,North,0,0.0,0.0,56,0.00,,---,0.00,VWS V13.01,2013-02-05 06:25:00,
2013-02-04 23:30:00,32.7,19.2,25.45,North,0,0.0,0.0,57,0.00,,---,0.00,VWS V13.01,2013-02-05 06:30:00,
2013-02-04 23:35:00,33.6,19.2,25.45,North,0,0.0,0.0,55,0.00,,---,0.00,VWS V13.01,2013-02-05 06:35:00,
2013-02-04 23:40:00,35.4,19.6,25.45,North,0,0.0,0.0,52,0.00,,---,0.00,VWS V13.01,2013-02-05 06:40:00,
2013-02-04 23:45:00,36.1,19.3,25.45,North,0,0.0,0.0,50,0.00,,---,0.00,VWS V13.01,2013-02-05 06:45:00,
2013-02-04 23:50:00,37.8,19.9,25.45,North,0,0.0,0.0,48,0.00,,---,0.00,VWS V13.01,2013-02-05 06:50:00,
2013-02-04 23:55:00,37.8,19.4,25.45,North,0,0.0,0.0,47,0.00,,---,0.00,VWS V13.01,2013-02-05 06:55:00,